Content
SEND FEEDBACK

Daily
Averages
Monthly
Summary
United States of America

BAYSIDE, NEW YORK


Home > North America > United States > New York
Elevation: 11 feet     Latitude: 40 46N     Longitude: 073 54W

WEATHER
 
SELECT A DAY
Number of Records: 191,039;   Date Range: 1/1/95 - 7/23/14
 
SHARE

PRINT THIS DATA

[ ← Previous Day ]
WEATHER ALMANAC - APRIL 27, 2014
[ Next Day → ]
[ °C ]   °F
Weather ElementAverageHighLow
Temperature52.1 °F55.9 °F (1:51 pm)46.9 °F (5:51 am)
Dewpoint32.8 °F36 °F (1:51 am)30.9 °F (10:51 am)
Humidity48.6 %61 % (4:51 am)39 % (1:51 pm)
Barometer29.99 in30.12 in (11:51 pm)29.88 in (1:51 am)
Wind Speed13.3 mph20.7 mph (8:51 am)
Wind Gust25.3 mph (1:51 pm)
Weather ElementAverage
Visibility10 mi
Wind DirectionNNW (332.2 °)

Weather ElementTotal
Precipitation---
Heating Degree Days13.6 (Base 65)
Growing Degree Days1.4 (Base 50)
Averaged from 23 records on April 27, 2014
WEATHER CONDITIONS BREAKOUT
WIND DIRECTION BREAKOUT
WEATHER BY HOUR - APRIL 27, 2014
[ °C ]   °F
Local TimeTemperatureDewpointHumidityBarometerVisibilityWind DirectionWind SpeedGust SpeedPrecipitationEventsConditions
1:51 AM50.0 °F36.0 °F59 %29.88 in10.0 miNW (310°)13.8 mphScattered Clouds
2:51 AM48.9 °F35.1 °F59 %29.88 in10.0 miNNW (330°)13.8 mphScattered Clouds
3:51 AM48.2 °F33.8 °F58 %29.89 in10.0 miNNW (330°)8.1 mphPartly Cloudy
4:51 AM48.0 °F35.1 °F61 %29.89 in10.0 miNW (320°)12.7 mphPartly Cloudy
5:51 AM46.9 °F34.0 °F61 %29.92 in10.0 miNNW (330°)10.4 mphPartly Cloudy
6:51 AM48.2 °F33.8 °F58 %29.94 in10.0 miNW (320°)12.7 mphPartly Cloudy
7:51 AM48.0 °F34.0 °F58 %29.95 in10.0 miNW (320°)13.8 mph21.9 mphScattered Clouds
8:51 AM48.9 °F33.1 °F54 %29.96 in10.0 miNW (320°)20.7 mphScattered Clouds
9:51 AM51.1 °F33.1 °F50 %29.98 in10.0 miNW (320°)17.3 mph21.9 mphScattered Clouds
10:51 AM52.0 °F30.9 °F45 %29.99 in10.0 miNNW (330°)9.2 mph20.7 mphMostly Cloudy
11:51 AM54.0 °F30.9 °F41 %29.98 in10.0 miNNW (330°)15.0 mph23.0 mphScattered Clouds
12:51 PM54.0 °F32.0 °F43 %29.98 in10.0 miNW (310°)13.8 mphMostly Cloudy
1:51 PM55.9 °F30.9 °F39 %29.98 in10.0 miNNW (330°)16.1 mph25.3 mphMostly Cloudy
2:51 PM55.9 °F32.0 °F40 %29.99 in10.0 miNW (310°)16.1 mphMostly Cloudy
3:51 PM55.9 °F30.9 °F39 %29.99 in10.0 miNorth (360°)17.3 mphMostly Cloudy
4:51 PM55.9 °F30.9 °F39 %29.99 in10.0 miNorth (350°)13.8 mphMostly Cloudy
5:51 PM55.0 °F30.9 °F40 %30.01 in10.0 miNNW (340°)12.7 mphMostly Cloudy
6:51 PM55.0 °F30.9 °F40 %30.03 in10.0 miNorth (350°)11.5 mphMostly Cloudy
7:51 PM55.0 °F30.9 °F40 %30.05 in10.0 miNorth (360°)10.4 mphMostly Cloudy
8:51 PM55.0 °F32.0 °F42 %30.08 in10.0 miNNW (340°)13.8 mphMostly Cloudy
9:51 PM53.1 °F34.0 °F48 %30.11 in10.0 miNorth (360°)9.2 mphMostly Cloudy
10:51 PM51.8 °F35.6 °F54 %30.11 in10.0 miNNW (340°)10.4 mphScattered Clouds
11:51 PM51.8 °F33.8 °F50 %30.12 in10.0 miNNW (330°)12.7 mphPartly Cloudy
Hourly data recorded from KLGA, located miles away from Bayside, New York







STORIES FROM OUR PARTNERS